Simultaneous Nadir Overpasses (SNOs) Predictions

Prediction of SNOs between AQUA and METOP-C Satellite Orbit:

Table of predicted SNOs for the next 14.0 days since TLE Epoch: 1/18/2025
Index Date (AQUA) Time (AQUA) Lat,Lon (AQUA) SZA (AQUA ) Date (METOP-C) Time (METOP-C) Lat,Lon (METOP-C) SZA (METOP-C ) Distance(km) Time Diff (sec)
1 01/19/2025 07:47:55 76.11, 63.85 96.30 01/19/2025 07:47:12 76.11, 63.96 96.30 2.89 43
2 01/19/2025 08:37:14 -76.15,-128.60 83.68 01/19/2025 08:37:52 -76.16,-128.54 83.66 2.02 38
3 01/21/2025 20:37:26 75.56,-126.82 95.18 01/21/2025 20:36:22 75.52,-130.22 95.17 94.58 64
4 01/21/2025 21:26:56 -76.13, 39.08 84.25 01/21/2025 21:26:50 -76.13, 39.11 84.25 0.98 6
5 01/21/2025 22:16:17 76.17,-153.37 95.79 01/21/2025 22:17:29 76.20,-153.32 95.81 2.93 72
6 01/24/2025 10:16:36 -76.11,-153.19 84.87 01/24/2025 10:15:47 -76.13,-153.12 84.85 2.88 49
7 01/24/2025 11:05:57 76.15, 14.33 95.17 01/24/2025 11:06:27 76.15, 14.28 95.17 1.52 30
8 01/26/2025 23:55:34 76.13,-177.93 94.50 01/26/2025 23:55:23 76.14,-178.00 94.52 2.48 11
9 01/27/2025 00:44:54 -76.20, -10.51 85.43 01/27/2025 00:46:03 -76.19, -10.48 85.44 1.24 69
10 01/29/2025 12:45:11 76.14, -10.30 93.84 01/29/2025 12:44:20 76.11, -10.32 93.83 2.52 51
11 01/29/2025 13:34:30 -76.16, 157.29 86.14 01/29/2025 13:35:00 -76.17, 157.21 86.13 2.42 30
12 02/01/2025 02:24:05 -76.16, -35.04 86.85 02/01/2025 02:23:57 -76.14, -35.14 86.87 3.32 8



Historial Predications of SNOs between AQUA and METOP-C
